| time (UTC) | temp F | wind direction | speed knots | gust knots | rain 1hr in | rain 24hr in | rain mn in | humidity % | barometer mb |
| 20260901233053 | 92 | 198 | 2.6 | 5.2 | 0.00 | 0.00 | 0.00 | 59 | 1012.4 |
| 20260901231551 | 93 | 233 | 0.9 | 6.1 | 0.00 | 0.00 | 0.00 | 58 | 1012.6 |
| 20260901230051 | 93 | 232 | 2.6 | 6.1 | 0.00 | 0.00 | 0.00 | 56 | 1012.6 |
| 20260901224548 | 94 | 207 | 4.3 | 7.0 | 0.00 | 0.00 | 0.00 | 54 | 1012.9 |
| 20260901223047 | 94 | 248 | 3.5 | 7.0 | 0.00 | 0.00 | 0.00 | 54 | 1013.1 |
| 20260901221556 | 94 | 243 | 3.5 | 7.0 | 0.00 | 0.00 | 0.00 | 54 | 1013.2 |
| 20260901220100 | 94 | 250 | 4.3 | 8.7 | 0.00 | 0.00 | 0.00 | 54 | 1013.3 |
| 20260901214550 | 94 | 142 | 7.0 | 11.3 | 0.00 | 0.00 | 0.00 | 55 | 1013.1 |
| 20260901213107 | 95 | 261 | 7.0 | 9.6 | 0.00 | 0.00 | 0.00 | 55 | 1013.2 |
| 20260901211543 | 95 | 176 | 5.2 | 8.7 | 0.00 | 0.00 | 0.00 | 55 | 1013.3 |
| 20260901204603 | 94 | 271 | 5.2 | 8.7 | 0.00 | 0.00 | 0.00 | 55 | 1013.5 |
| 20260901203056 | 94 | 263 | 7.0 | 10.4 | 0.00 | 0.00 | 0.00 | 55 | 1013.5 |
| 20260901201553 | 94 | 254 | 5.2 | 9.6 | 0.00 | 0.00 | 0.00 | 55 | 1013.8 |
| 20260901200057 | 95 | 281 | 5.2 | 10.4 | 0.00 | 0.00 | 0.00 | 54 | 1013.8 |
| 20260901194559 | 95 | 312 | 5.2 | 12.2 | 0.00 | 0.00 | 0.00 | 55 | 1014.0 |
| 20260901193056 | 94 | 308 | 2.6 | 8.7 | 0.00 | 0.00 | 0.00 | 56 | 1014.4 |
| 20260901191604 | 94 | 328 | 2.6 | 8.7 | 0.00 | 0.00 | 0.00 | 56 | 1014.5 |
| 20260901184600 | 93 | 292 | 6.1 | 10.4 | 0.00 | 0.00 | 0.00 | 57 | 1014.3 |
| 20260901183056 | 94 | 246 | 3.5 | 10.4 | 0.00 | 0.00 | 0.00 | 56 | 1014.7 |
| 20260901181607 | 94 | 90 | 4.3 | 12.2 | 0.00 | 0.00 | 0.00 | 57 | 1014.6 |
| 20260901180100 | 93 | 256 | 2.6 | 9.6 | 0.00 | 0.00 | 0.00 | 57 | 1014.9 |
| 20260901174604 | 93 | 301 | 7.0 | 12.2 | 0.00 | 0.00 | 0.00 | 57 | 1014.7 |
| 20260901173052 | 93 | 234 | 5.2 | 9.6 | 0.00 | 0.00 | 0.00 | 58 | 1014.8 |
| 20260901171614 | 93 | 273 | 2.6 | 11.3 | 0.00 | 0.00 | 0.00 | 57 | 1014.7 |
| 20260901170108 | 92 | 265 | 5.2 | 8.7 | 0.00 | 0.00 | 0.00 | 58 | 1014.7 |
| 20260901164619 | 92 | 309 | 3.5 | 7.8 | 0.00 | 0.00 | 0.00 | 58 | 1014.9 |
| 20260901163100 | 92 | 285 | 3.5 | 7.0 | 0.00 | 0.00 | 0.00 | 59 | 1015.0 |
| 20260901161604 | 92 | 291 | 1.7 | 7.0 | 0.00 | 0.00 | 0.00 | 59 | 1015.3 |
| 20260901160108 | 91 | 202 | 4.3 | 8.7 | 0.00 | 0.00 | 0.00 | 56 | 1015.4 |
| 20260901154606 | 91 | 13 | 2.6 | 7.0 | 0.00 | 0.00 | 0.00 | 55 | 1015.4 |
| 20260901153103 | 90 | 216 | 0.9 | 5.2 | 0.00 | 0.00 | 0.00 | 62 | 1015.8 |
| 20260901151602 | 88 | 306 | 0.0 | 3.5 | 0.00 | 0.00 | 0.00 | 67 | 1015.9 |
| 20260901150036 | 87 | 289 | 4.3 | 7.8 | 0.00 | 0.00 | 0.00 | 67 | 1015.8 |
| 20260901144535 | 86 | 250 | 3.5 | 7.8 | 0.00 | 0.00 | 0.00 | 69 | 1016.0 |
| 20260901143034 | 86 | 273 | 5.2 | 7.8 | 0.00 | 0.00 | 0.00 | 70 | 1016.2 |
| 20260901141539 | 85 | 269 | 2.6 | 7.0 | 0.00 | 0.00 | 0.00 | 72 | 1015.9 |
| 20260901140034 | 83 | 273 | 2.6 | 7.0 | 0.00 | 0.00 | 0.00 | 74 | 1015.7 |
| 20260901134534 | 82 | 252 | 0.9 | 3.5 | 0.00 | 0.00 | 0.00 | 78 | 1015.5 |
| 20260901133035 | 80 | 236 | 4.3 | 7.0 | 0.00 | 0.00 | 0.00 | 81 | 1015.8 |
| 20260901131545 | 79 | 252 | 0.9 | 6.1 | 0.00 | 0.00 | 0.00 | 82 | 1015.8 |
| 20260901130037 | 79 | 236 | 2.6 | 7.8 | 0.00 | 0.00 | 0.00 | 82 | 1015.8 |
| 20260901124541 | 79 | 246 | 3.5 | 7.8 | 0.00 | 0.00 | 0.00 | 82 | 1015.8 |
| 20260901123042 | 79 | 277 | 2.6 | 5.2 | 0.00 | 0.00 | 0.00 | 84 | 1015.7 |
| 20260901121541 | 78 | 265 | 0.0 | 0.0 | 0.00 | 0.00 | 0.00 | 86 | 1015.7 |
| 20260901120034 | 77 | 290 | 0.9 | 3.5 | 0.00 | 0.00 | 0.00 | 87 | 1015.4 |
| 20260901114552 | 77 | 231 | 0.0 | 0.0 | 0.00 | 0.00 | 0.00 | 90 | 1015.5 |
| 20260901113035 | 76 | 214 | 0.0 | 0.0 | 0.00 | 0.00 | 0.00 | 90 | 1015.4 |
| 20260901111542 | 75 | 245 | 0.0 | 0.0 | 0.00 | 0.00 | 0.00 | 90 | 1015.2 |
| 20260901110035 | 75 | 181 | 0.0 | 0.0 | 0.00 | 0.00 | 0.00 | 90 | 1014.9 |
| 20260901104534 | 75 | 214 | 0.0 | 0.0 | 0.00 | 0.00 | 0.00 | 90 | 1014.7 |
| 20260901103037 | 75 | 214 | 0.0 | 0.0 | 0.00 | 0.00 | 0.00 | 90 | 1014.7 |
| 20260901101538 | 75 | 186 | 0.0 | 0.9 | 0.00 | 0.00 | 0.00 | 90 | 1014.7 |
| 20260901100037 | 76 | 121 | 0.0 | 0.0 | 0.00 | 0.00 | 0.00 | 90 | 1014.7 |
| 20260901094534 | 76 | 121 | 0.0 | 0.0 | 0.00 | 0.00 | 0.00 | 90 | 1014.7 |
| 20260901093041 | 76 | 226 | 0.0 | 0.0 | 0.00 | 0.00 | 0.00 | 90 | 1014.7 |
| 20260901091543 | 76 | 13 | 0.0 | 0.0 | 0.00 | 0.00 | 0.00 | 89 | 1014.7 |
| 20260901090035 | 76 | 174 | 0.0 | 0.0 | 0.00 | 0.00 | 0.00 | 88 | 1014.7 |
| 20260901084534 | 77 | 174 | 0.0 | 0.0 | 0.00 | 0.00 | 0.00 | 87 | 1014.7 |
| 20260901083039 | 77 | 174 | 0.0 | 0.0 | 0.00 | 0.00 | 0.00 | 87 | 1015.0 |
| 20260901081542 | 77 | 174 | 0.0 | 0.0 | 0.00 | 0.00 | 0.00 | 87 | 1015.0 |
| 20260901080038 | 77 | 201 | 0.0 | 0.0 | 0.00 | 0.00 | 0.00 | 87 | 1015.0 |
| 20260901074550 | 77 | 257 | 0.0 | 0.0 | 0.00 | 0.00 | 0.00 | 86 | 1015.2 |
| 20260901073038 | 78 | 257 | 0.0 | 0.0 | 0.00 | 0.00 | 0.00 | 86 | 1015.4 |
| 20260901071537 | 78 | 257 | 0.0 | 0.0 | 0.00 | 0.00 | 0.00 | 86 | 1015.2 |
| 20260901070042 | 78 | 273 | 0.0 | 3.5 | 0.00 | 0.00 | 0.00 | 86 | 1015.4 |
| 20260901064541 | 78 | 226 | 0.0 | 3.5 | 0.00 | 0.00 | 0.00 | 85 | 1015.4 |
| 20260901063043 | 78 | 200 | 0.0 | 3.5 | 0.00 | 0.00 | 0.00 | 85 | 1015.5 |
| 20260901061543 | 78 | 175 | 0.0 | 0.0 | 0.00 | 0.00 | 0.00 | 86 | 1015.7 |
| 20260901060044 | 78 | 221 | 0.0 | 3.5 | 0.00 | 0.00 | 0.00 | 86 | 1015.7 |
| 20260901054542 | 78 | 239 | 1.7 | 2.6 | 0.00 | 0.00 | 0.00 | 86 | 1015.9 |
| 20260901053050 | 78 | 248 | 0.9 | 3.5 | 0.00 | 0.00 | 0.00 | 86 | 1016.0 |
| 20260901051553 | 78 | 277 | 0.0 | 0.0 | 0.00 | 0.00 | 0.00 | 85 | 1016.2 |
| 20260901050048 | 79 | 277 | 0.0 | 0.0 | 0.00 | 0.00 | 0.00 | 85 | 1016.2 |
| 20260901044543 | 79 | 309 | 0.9 | 2.6 | 0.00 | 0.00 | 0.00 | 83 | 1016.4 |
| 20260901043042 | 80 | 238 | 1.7 | 3.5 | 0.00 | 0.00 | 0.00 | 82 | 1016.4 |
| 20260901041543 | 80 | 246 | 0.0 | 0.0 | 0.00 | 0.00 | 0.00 | 81 | 1016.4 |
| 20260901040108 | 81 | 146 | 0.0 | 0.0 | 0.00 | 0.00 | 0.00 | 80 | 1016.5 |
| 20260901034542 | 81 | 150 | 0.0 | 0.0 | 0.00 | 0.00 | 0.00 | 80 | 1016.5 |
| 20260901033053 | 81 | 176 | 0.0 | 0.0 | 0.00 | 0.00 | 0.00 | 79 | 1016.4 |
| 20260901031549 | 82 | 194 | 0.0 | 3.5 | 0.00 | 0.00 | 0.00 | 79 | 1016.3 |
| 20260901030046 | 82 | 138 | 0.0 | 3.5 | 0.00 | 0.00 | 0.00 | 77 | 1016.2 |
| 20260901024543 | 82 | 138 | 0.0 | 0.0 | 0.00 | 0.00 | 0.00 | 76 | 1016.2 |
| 20260901023053 | 82 | 166 | 0.0 | 0.0 | 0.00 | 0.00 | 0.00 | 76 | 1016.2 |
| 20260901021549 | 83 | 165 | 0.0 | 0.0 | 0.00 | 0.00 | 0.00 | 75 | 1016.5 |
| 20260901020050 | 83 | 153 | 1.7 | 3.5 | 0.00 | 0.00 | 0.00 | 74 | 1016.2 |
| 20260901014547 | 84 | 139 | 0.0 | 2.6 | 0.00 | 0.00 | 0.00 | 74 | 1016.3 |
| 20260901013107 | 84 | 169 | 0.0 | 0.0 | 0.00 | 0.00 | 0.00 | 74 | 1016.3 |
| 20260901011548 | 84 | 183 | 0.0 | 0.0 | 0.00 | 0.00 | 0.00 | 73 | 1016.0 |
| 20260901010048 | 84 | 107 | 0.0 | 0.0 | 0.00 | 0.00 | 0.00 | 73 | 1016.2 |
| 20260901004545 | 84 | 150 | 0.0 | 2.6 | 0.00 | 0.00 | 0.00 | 72 | 1016.1 |
| 20260901003042 | 85 | 151 | 0.9 | 4.3 | 0.00 | 0.00 | 0.00 | 72 | 1016.1 |
| 20260901001547 | 85 | 163 | 1.7 | 6.1 | 0.00 | 0.00 | 0.00 | 71 | 1016.0 |
| 20260901000056 | 85 | 118 | 0.0 | 5.2 | 0.00 | 0.00 | 0.00 | 70 | 1016.1 |
| 20260831234555 | 86 | 97 | 0.9 | 3.5 | 0.00 | 0.00 | 0.00 | 70 | 1016.0 |